Bellefontaine, OH

7:53 AM EST on February 23, 2017 (GMT -0500)
Bellefontaine

Weather History for KEDJ - January, 2013

Change the Weather History Date:

Friday, January 25, 2013

  Actual Average (KDAY) Record (KDAY)
Temperature  
Mean Temperature 20 °F -  
Max Temperature 23 °F 35 °F 71 °F (1950)
Min Temperature 17 °F 20 °F -12 °F (1897)
Degree Days  
Heating Degree Days 45    
Moisture  
Dew Point 13 °F    
Average Humidity 77    
Maximum Humidity 93    
Minimum Humidity 58    
Precipitation  
Precipitation 0.03 in - - ()
Sea Level Pressure  
Sea Level Pressure 30.13 in    
Wind  
Wind Speed 8 mph (SSE)    
Max Wind Speed 15 mph    
Max Gust Speed -    
Visibility 7 miles    
Events      
Averages and records for this station are not official NWS values.
T = Trace of Precipitation, MM = Missing Value Source: NWS Daily Summary

Daily Weather History Graph

Daily Weather History Graph

Search for Another Location

Airport or City:

Trip Planner

Search our weather history database for the weather conditions in past years. The results will help you decide how hot, cold, wet, or windy it might be!

Date:

Astronomy

Jan. 25, 2013 Rise Set
Actual Time 7:50 AM EST 5:45 PM EST
Civil Twilight 7:21 AM EST 6:14 PM EST
Nautical Twilight 6:48 AM EST 6:47 PM EST
Astronomical Twilight 6:15 AM EST 7:20 PM EST
Moon 4:41 PM EST (1/25) 6:29 AM EST (1/25)
Length of Visible Light 10h 53m
Length of Day
9h 55m
Waxing Gibbous, 98% of the Moon is Illuminated
Jan 25
Waxing Gibbous
Jan 26
Full
Feb 3
Last Quarter
Feb 10
New
Feb 17
First Quarter

Hourly Weather History & Observations

Time (EST) Temp. Windchill Dew Point Humidity Pressure Visibility Wind Dir Wind Speed Gust Speed Precip Events Conditions
12:15 AM 17.6 °F 10.7 °F 8.6 °F 68% 30.41 in 10.0 mi SE 4.6 mph - 0.00 in   Clear
12:35 AM 17.6 °F 9.3 °F 8.6 °F 68% 30.40 in 10.0 mi SE 5.8 mph - 0.00 in   Clear
12:55 AM 17.6 °F 9.3 °F 8.6 °F 68% 30.39 in 10.0 mi SE 5.8 mph - 0.00 in   Clear
1:15 AM 17.6 °F 7.3 °F 8.6 °F 68% 30.36 in 10.0 mi ESE 8.1 mph - 0.00 in   Clear
1:35 AM 17.6 °F 8.2 °F 8.6 °F 68% 30.34 in 10.0 mi ESE 6.9 mph - 0.00 in   Clear
1:55 AM 19.4 °F 14.3 °F 8.6 °F 63% 30.34 in 10.0 mi SE 3.5 mph - 0.00 in   Clear
2:15 AM 19.4 °F 9.5 °F 8.6 °F 63% 30.35 in 10.0 mi SE 8.1 mph - 0.00 in   Clear
2:35 AM 19.4 °F 10.4 °F 8.6 °F 63% 30.33 in 10.0 mi ESE 6.9 mph - 0.00 in   Clear
2:55 AM 19.4 °F 11.5 °F 8.6 °F 63% 30.34 in 10.0 mi SE 5.8 mph - 0.00 in   Clear
3:15 AM 19.4 °F 11.5 °F 8.6 °F 63% 30.33 in 10.0 mi ESE 5.8 mph - 0.00 in   Clear
3:35 AM 19.4 °F 10.4 °F 8.6 °F 63% 30.32 in 10.0 mi ESE 6.9 mph - 0.00 in   Scattered Clouds
3:55 AM 19.4 °F 10.4 °F 8.6 °F 63% 30.31 in 10.0 mi SE 6.9 mph - 0.00 in   Scattered Clouds
4:15 AM 19.4 °F 10.4 °F 8.6 °F 63% 30.28 in 10.0 mi ESE 6.9 mph - 0.00 in   Scattered Clouds
4:35 AM 19.4 °F 9.5 °F 6.8 °F 58% 30.26 in 10.0 mi ESE 8.1 mph - 0.00 in   Clear
4:55 AM 19.4 °F 8.6 °F 6.8 °F 58% 30.24 in 10.0 mi ESE 9.2 mph - 0.00 in   Clear
5:15 AM 19.4 °F 10.4 °F 6.8 °F 58% 30.23 in 10.0 mi ESE 6.9 mph - 0.00 in   Clear
5:35 AM 19.4 °F 9.5 °F 8.6 °F 63% 30.23 in 10.0 mi SE 8.1 mph - 0.00 in   Clear
5:55 AM 19.4 °F 7.2 °F 8.6 °F 63% 30.22 in 10.0 mi SE 11.5 mph - 0.00 in   Clear
6:15 AM 19.4 °F 6.6 °F 8.6 °F 63% 30.20 in 10.0 mi SE 12.7 mph - 0.00 in   Clear
6:35 AM 19.4 °F 7.9 °F 8.6 °F 63% 30.19 in 10.0 mi SE 10.4 mph - 0.00 in   Clear
6:55 AM 19.4 °F 6.0 °F 10.4 °F 68% 30.17 in 2.5 mi SE 13.8 mph - 0.00 in   Mostly Cloudy
7:15 AM 17.6 °F 5.7 °F 12.2 °F 79% 30.18 in 1.2 mi SE 10.4 mph - 0.00 in   Mostly Cloudy
7:35 AM 17.6 °F 5.0 °F 14.0 °F 86% 30.16 in 1.0 mi SE 11.5 mph - 0.00 in   Overcast
7:55 AM 17.6 °F 5.7 °F 14.0 °F 86% 30.14 in 0.8 mi SE 10.4 mph - 0.00 in   Mostly Cloudy
8:35 AM 17.6 °F 3.2 °F 14.0 °F 86% 30.12 in 0.8 mi SE 15.0 mph - 0.01 in   Overcast
8:55 AM 17.6 °F 3.7 °F 14.0 °F 86% 30.11 in 0.5 mi SSE 13.8 mph - 0.01 in   Mostly Cloudy
9:15 AM 17.6 °F 5.7 °F 14.0 °F 86% 30.11 in 0.5 mi SSE 10.4 mph - 0.00 in   Unknown
9:35 AM 17.6 °F 5.0 °F 14.0 °F 86% 30.11 in 0.5 mi SSE 11.5 mph - 0.01 in   Unknown
9:55 AM 17.6 °F 4.3 °F 14.0 °F 86% 30.10 in 0.5 mi SSE 12.7 mph - 0.01 in   Overcast
10:15 AM 17.6 °F 3.7 °F 14.0 °F 86% 30.08 in 0.8 mi SSE 13.8 mph - 0.00 in   Mostly Cloudy
10:35 AM 17.6 °F 5.0 °F 14.0 °F 86% 30.09 in 0.8 mi SSE 11.5 mph - 0.00 in   Unknown
10:55 AM 17.6 °F 5.0 °F 14.0 °F 86% 30.08 in 0.5 mi SE 11.5 mph - 0.01 in   Unknown
11:15 AM 19.4 °F 7.9 °F 14.0 °F 80% 30.08 in 0.8 mi SSE 10.4 mph - 0.00 in   Mostly Cloudy
11:35 AM 19.4 °F 7.9 °F 14.0 °F 80% 30.07 in 4.0 mi SSE 10.4 mph - 0.00 in   Clear
11:55 AM 19.4 °F 9.5 °F 14.0 °F 80% 30.07 in 1.8 mi SSE 8.1 mph - 0.00 in   Clear
12:15 PM 19.4 °F 6.6 °F 14.0 °F 80% 30.03 in 1.5 mi SSE 12.7 mph - 0.00 in   Clear
12:35 PM 19.4 °F 8.6 °F 14.0 °F 80% 30.03 in 5.0 mi SSE 9.2 mph - 0.00 in   Clear
12:55 PM 19.4 °F 9.5 °F 14.0 °F 80% 30.02 in 6.0 mi SSE 8.1 mph - 0.00 in   Partly Cloudy
1:15 PM 21.2 °F 12.6 °F 15.8 °F 80% 30.02 in 10.0 mi SSE 6.9 mph - 0.00 in   Scattered Clouds
1:35 PM 21.2 °F 11.7 °F 15.8 °F 80% 30.01 in 10.0 mi SSE 8.1 mph - 0.00 in   Mostly Cloudy
2:15 PM 21.2 °F 10.9 °F 15.8 °F 80% 29.99 in 10.0 mi South 9.2 mph - 0.00 in   Mostly Cloudy
2:35 PM 21.2 °F 12.6 °F 15.8 °F 80% 29.99 in 10.0 mi South 6.9 mph - 0.00 in   Overcast
2:55 PM 21.2 °F 12.6 °F 15.8 °F 80% 29.98 in 10.0 mi South 6.9 mph - 0.00 in   Mostly Cloudy
3:15 PM 21.2 °F 12.6 °F 15.8 °F 80% 29.97 in 10.0 mi South 6.9 mph - 0.00 in   Mostly Cloudy
3:35 PM 21.2 °F 12.6 °F 17.6 °F 86% 29.97 in 10.0 mi SSW 6.9 mph - 0.00 in   Overcast
3:55 PM 21.2 °F 11.7 °F 17.6 °F 86% 29.97 in 10.0 mi SSW 8.1 mph - 0.00 in   Overcast
4:15 PM 21.2 °F 11.7 °F 17.6 °F 86% 29.98 in 10.0 mi SW 8.1 mph - 0.00 in   Overcast
4:35 PM 21.2 °F 10.9 °F 17.6 °F 86% 29.98 in 10.0 mi SW 9.2 mph - 0.00 in   Mostly Cloudy
4:55 PM 21.2 °F 12.6 °F 17.6 °F 86% 29.99 in 10.0 mi SW 6.9 mph - 0.00 in   Mostly Cloudy
5:15 PM 21.2 °F 13.6 °F 17.6 °F 86% 29.99 in 10.0 mi WSW 5.8 mph - 0.00 in   Mostly Cloudy
5:35 PM 21.2 °F 13.6 °F 17.6 °F 86% 29.99 in 10.0 mi WSW 5.8 mph - 0.00 in   Mostly Cloudy
5:55 PM 21.2 °F 13.6 °F 17.6 °F 86% 29.98 in 10.0 mi SW 5.8 mph - 0.00 in   Overcast
6:15 PM 21.2 °F 12.6 °F 17.6 °F 86% 29.99 in 10.0 mi SW 6.9 mph - 0.00 in   Mostly Cloudy
6:35 PM 21.2 °F 12.6 °F 17.6 °F 86% 29.98 in 10.0 mi SSW 6.9 mph - 0.00 in   Mostly Cloudy
6:55 PM 21.2 °F 12.6 °F 19.4 °F 93% 29.99 in 10.0 mi SSW 6.9 mph - 0.00 in   Overcast
7:15 PM 21.2 °F 11.7 °F 19.4 °F 93% 29.97 in 10.0 mi South 8.1 mph - 0.00 in   Overcast
7:35 PM 21.2 °F 12.6 °F 19.4 °F 93% 30.00 in 10.0 mi SW 6.9 mph - 0.00 in   Overcast
7:55 PM 21.2 °F 12.6 °F 19.4 °F 93% 30.01 in 10.0 mi WSW 6.9 mph - 0.00 in   Mostly Cloudy
8:15 PM 23.0 °F 13.1 °F 19.4 °F 86% 30.02 in 10.0 mi WSW 9.2 mph - 0.00 in   Mostly Cloudy
8:35 PM 23.0 °F 12.4 °F 19.4 °F 86% 30.03 in 5.0 mi WSW 10.4 mph - 0.00 in   Overcast